This is the latest recevied weather packets stored in our database for station/object K1ZK-13. If no packets are shown the sender has not sent any weather packets the latest 10 day(s).
| Time | Temp. | Humidity | Pressure | Rain* | Wind** | Luminosity | Snow |
|---|---|---|---|---|---|---|---|
| 1777897048 | 8.89° C | 79% | 1007 hPa | 0 mm | - | 58 W/m² | - |
| 1777896745 | 8.89° C | 79% | 1007.2 hPa | 0 mm | - | 42 W/m² | - |
| 1777896442 | 8.89° C | 82% | 1006.9 hPa | 0 mm | - | 61 W/m² | - |
| 1777895838 | 8.89° C | 82% | 1007.1 hPa | 0 mm | - | 61 W/m² | - |
| 1777895535 | 8.89° C | 83% | 1007 hPa | 0 mm | - | 65 W/m² | - |
| 1777893414 | 7.78° C | 86% | 1007.3 hPa | 0 mm | - | 23 W/m² | - |
| 1777893110 | 7.78° C | 86% | 1007.4 hPa | 0 mm | - | 23 W/m² | - |
| 1777892807 | 7.78° C | 86% | 1007.1 hPa | 0 mm | - | 12 W/m² | - |
| 1777885224 | 7.78° C | 85% | 1007.7 hPa | 0 mm | - | 0 W/m² | - |
| 1777884922 | 7.78° C | 85% | 1007.7 hPa | 0 mm | - | 0 W/m² | - |
| 1777884315 | 7.22° C | 85% | 1007.8 hPa | 0 mm | - | 0 W/m² | - |
| 1777884010 | 7.78° C | 84% | 1007.9 hPa | 0 mm | - | 0 W/m² | - |
| 1777883709 | 7.78° C | 84% | 1007.8 hPa | 0 mm | - | 0 W/m² | - |
| 1777883404 | 7.78° C | 83% | 1008 hPa | 0 mm | - | 0 W/m² | - |
| 1777883101 | 7.78° C | 82% | 1008 hPa | 0 mm | - | 0 W/m² | - |
| 1777882797 | 7.78° C | 82% | 1008.2 hPa | 0 mm | - | 0 W/m² | - |
| 1777882495 | 7.78° C | 82% | 1008.4 hPa | 0 mm | - | 0 W/m² | - |
| 1777882190 | 7.22° C | 82% | 1008.3 hPa | 0 mm | - | 0 W/m² | - |
| 1777881887 | 7.78° C | 80% | 1008.1 hPa | 0 mm | - | 0 W/m² | - |
| 1777881583 | 7.78° C | 80% | 1008.3 hPa | 0 mm | - | 0 W/m² | - |
| 1777881280 | 7.78° C | 80% | 1008.2 hPa | 0 mm | - | 0 W/m² | - |
| 1777880978 | 7.78° C | 79% | 1008 hPa | 0 mm | - | 0 W/m² | - |
| 1777880373 | 7.22° C | 76% | 1008.1 hPa | 0 mm | - | 0 W/m² | - |
| 1777880072 | 7.22° C | 76% | 1008.4 hPa | 0 mm | - | 0 W/m² | - |
| 1777879770 | 7.22° C | 75% | 1008.2 hPa | 0 mm | - | 0 W/m² | - |
* Rain latest hour (hover to see other rain measurements)
** Current wind speed in m/s (hover to see current wind gust speed)